| time (UTC) | temp C | wind direction | speed KPH | gust KPH | rain 1hr cm | rain 24hr cm | rain mn cm | humidity % | barometer mb |
| 20260503070308 | 0 | 320 | 19.3 | 0.0 | 0.00 | 0.00 | 0.00 | 63 | 1006.0 |
| 20260503060307 | -1 | 320 | 14.5 | 0.0 | 0.00 | 0.00 | 0.00 | 74 | 1006.0 |
| 20260503053306 | -1 | 280 | 14.5 | 0.0 | 0.00 | 0.00 | 0.00 | 68 | 1006.0 |
| 20260503050307 | -1 | 340 | 9.7 | 0.0 | 0.00 | 0.00 | 0.00 | 68 | 1006.0 |
| 20260503043309 | -2 | 300 | 8.0 | 0.0 | 0.00 | 0.00 | 0.00 | 74 | 1006.0 |
| 20260503040306 | -2 | 260 | 4.8 | 0.0 | 0.00 | 0.00 | 0.00 | 79 | 1006.0 |
| 20260503033307 | -2 | 310 | 4.8 | 0.0 | 0.00 | 0.00 | 0.00 | 74 | 1006.0 |
| 20260503030307 | -2 | 340 | 9.7 | 0.0 | 0.00 | 0.00 | 0.00 | 79 | 1006.0 |
| 20260503023306 | -2 | 300 | 19.3 | 0.0 | 0.00 | 0.00 | 0.00 | 74 | 1006.0 |
| 20260503020307 | -1 | 290 | 11.3 | 0.0 | 0.00 | 0.00 | 0.00 | 68 | 1006.0 |
| 20260503013308 | -1 | 310 | 4.8 | 0.0 | 0.00 | 0.00 | 0.00 | 74 | 1006.0 |
| 20260503010309 | -1 | 350 | 11.3 | 0.0 | 0.00 | 0.00 | 0.00 | 74 | 1006.0 |
| 20260503003309 | -1 | 290 | 27.4 | 0.0 | 0.00 | 0.00 | 0.00 | 80 | 1005.0 |
| 20260503000306 | 0 | 300 | 19.3 | 37.0 | 0.00 | 0.00 | 0.00 | 80 | 1005.0 |
| 20260502233310 | 0 | 300 | 16.1 | 0.0 | 0.00 | 0.00 | 0.00 | 86 | 1005.0 |
| 20260502230307 | -1 | 350 | 16.1 | 0.0 | 0.00 | 0.00 | 0.00 | 92 | 1005.0 |
| 20260502223307 | 0 | 320 | 9.7 | 0.0 | 0.00 | 0.00 | 0.00 | 86 | 1005.0 |
| 20260502220307 | 0 | 290 | 9.7 | 0.0 | 0.00 | 0.00 | 0.00 | 86 | 1005.0 |
| 20260502213308 | 0 | 310 | 8.0 | 0.0 | 0.00 | 0.00 | 0.00 | 80 | 1005.0 |
| 20260502210306 | 0 | 0 | 3.2 | 0.0 | 0.00 | 0.00 | 0.00 | 80 | 1005.0 |
| 20260502203306 | 0 | 310 | 11.3 | 0.0 | 0.00 | 0.00 | 0.00 | 74 | 1005.0 |
| 20260502200307 | 0 | 290 | 12.9 | 0.0 | 0.00 | 0.00 | 0.00 | 80 | 1005.0 |
| 20260502193309 | 0 | 320 | 12.9 | 0.0 | 0.00 | 0.00 | 0.00 | 86 | 1005.0 |
| 20260502190307 | 0 | 260 | 12.9 | 0.0 | 0.00 | 0.00 | 0.00 | 86 | 1005.0 |
| 20260502183306 | 0 | 280 | 12.9 | 0.0 | 0.00 | 0.00 | 0.00 | 74 | 1005.0 |
| 20260502180308 | 0 | 250 | 11.3 | 0.0 | 0.00 | 0.00 | 0.00 | 74 | 1005.0 |
| 20260502170308 | 0 | 300 | 11.3 | 0.0 | 0.00 | 0.00 | 0.00 | 80 | 1005.0 |
| 20260502163308 | 0 | 300 | 29.0 | 0.0 | 0.00 | 0.00 | 0.00 | 80 | 1005.0 |
| 20260502160309 | 1 | 270 | 14.5 | 0.0 | 0.00 | 0.00 | 0.00 | 69 | 1005.0 |
| 20260502150309 | 2 | 240 | 16.1 | 0.0 | 0.00 | 0.00 | 0.00 | 64 | 1005.0 |
| 20260502130309 | 5 | 280 | 20.9 | 40.2 | 0.00 | 0.00 | 0.00 | 56 | 1005.0 |
| 20260502123308 | 3 | 290 | 20.9 | 0.0 | 0.00 | 0.00 | 0.00 | 60 | 1005.0 |
| 20260502120309 | 2 | 280 | 24.1 | 0.0 | 0.00 | 0.00 | 0.00 | 64 | 1005.0 |
| 20260502113310 | 1 | 300 | 22.5 | 0.0 | 0.00 | 0.00 | 0.00 | 74 | 1005.0 |
| 20260502110309 | 2 | 310 | 19.3 | 0.0 | 0.00 | 0.00 | 0.00 | 69 | 1005.0 |
| 20260502103308 | 2 | 300 | 19.3 | 38.6 | 0.00 | 0.00 | 0.00 | 59 | 1005.0 |
| 20260502100308 | 2 | 290 | 24.1 | 0.0 | 0.00 | 0.00 | 0.00 | 64 | 1005.0 |
| 20260502090308 | 1 | 290 | 20.9 | 0.0 | 0.00 | 0.00 | 0.00 | 86 | 1004.0 |